Weather Roundup
Issued by NWS Chicago, IL

Home | Current Version | Previous Version | Text Only | Print | Product List | Glossary Off
Versions: 1 2 3 4 5 6 7 8 9 10 11 12 13 14 15 16 17 18 19 20 21 22 23 24 25 26 27 28 29 30 31 32 33 34 35 36 37 38 39 40 41 42 43 44 45 46 47 48 49 50

000
NZUS59 KLOT 300612
HRRLOT

CHICAGO AREA WEATHER ROUNDUP
NATIONAL WEATHER SERVICE CHICAGO/ROMEOVILLE IL
100 AM CDT SUN AUG 30 2015

NOTE: "FAIR" INDICATES FEW OR NO CLOUDS BELOW 12,000 FEET WITH NO
SIGNIFICANT WEATHER AND/OR OBSTRUCTIONS TO VISIBILITY.

* THESE STATIONS ARE NOT UNDER NWS QUALITY CONTROL. THEY ALSO MAY NOT
  REPORT WEATHER SUCH AS PRECIPITATION OR FOG.

ILZ005-006-012>014-019>023-300700-
NORTHEAST ILLINOIS

CITY           SKY/WX    TMP DP  RH WIND       PRES   REMARKS
OHARE          CLOUDY    65  64  97 NE5       30.03S FOG
6HR MIN TEMP:  65; 6HR MAX TEMP:  68; 6HR PCP:  0.05;

MIDWAY         CLOUDY    68  65  90 N5        30.02F FOG
6HR MIN TEMP:  68; 6HR MAX TEMP:  72; 6HR PCP:  0.03;

AURORA         FOG       66  65  96 CALM      30.04S VSB 3/4
6HR MIN TEMP:  67; 6HR MAX TEMP:  70; 6HR PCP:  0.02;

LANSING*       CLOUDY    67  66  94 CALM      30.03S FOG
JOLIET*        CLOUDY    69  67  96 CALM      30.03R FOG
WAUKEGAN       FOG       63  63 100 CALM      30.03S VSB 1
6HR MIN TEMP:  63; 6HR MAX TEMP:  65;

DUPAGE AIRPORT CLOUDY    66  64  93 CALM      30.03S FOG
6HR MIN TEMP:  66; 6HR MAX TEMP:  69; 6HR PCP:  0.01;

WHEELING       CLOUDY    65  63  93 N8        30.03F FOG
6HR MIN TEMP:  65; 6HR MAX TEMP:  68; 6HR PCP:  0.01;

KANKAKEE*      CLOUDY    69  69  98 CALM      30.03S FOG
MORRIS*        CLOUDY    67  66  96 CALM      30.02S FOG
LEWIS AIRPORT* CLOUDY    66  66  98 CALM      30.03S FOG
NORTHERLY IS     N/A     62  61  96 MISG        N/A
$$

WIZ051-052-058>065-066-070>072-300700-
SOUTHEAST WISCONSIN

CITY           SKY/WX    TMP DP  RH WIND       PRES   REMARKS
MILWAUKEE      FOG       62  61  96 N5        30.04S VSB 1/4
6HR MIN TEMP:  62; 6HR MAX TEMP:  63; 6HR PCP:  0.01;

KENOSHA*       FOG       63  62  97 VRB3      30.04S VSB 1/2
RACINE*        FOG       63  61  93 N5        30.05S VSB 1/2
BURLINGTON     CLOUDY    61  61  99 CALM      30.05S FOG
WAUKESHA       CLOUDY    59  59 100 CALM      30.06S FOG
WEST BEND      CLOUDY    61  59  94 CALM      30.05S FOG
$$

INZ001>003-010>013-019-020-300700-
NORTHWEST INDIANA

CITY           SKY/WX    TMP DP  RH WIND       PRES   REMARKS
GARY*          CLOUDY    68  65  89 NW6       30.04S FOG
6HR MIN TEMP:  68; 6HR MAX TEMP:  72;

MICHIGAN CITY* NOT AVBL
RENSSELAER*    NOT AVBL
VALPARAISO     CLOUDY    69  67  93 CALM      30.03F FOG
$$

LMZ740>746-300700-
SOUTHERN LAKE MICHIGAN

STATION/POSITION TIME  SKY/WX   TEMP WIND        PRES    VSBY
                                AIR  DIR/SP/G
                 (UTC)          (F)  (DEG/KT/KT) (MB)    (MI)
HARRISON CRIB    0500            61  340/ 11/ 13   N/A
BURNHAM HARBOR   0600            62  350/  4/  8   N/A
CALUMET HARBOR   NOT AVBL
BURNS HARBOR     0500            69  330/  6/  8 1017.3
MICHIGAN CITY    0500            69  310/  5/  5   N/A
$$

ABBREVIATIONS USED IN REMARKS
   TC - TEMPERATURE IN CELSIUS
  WCI - WIND CHILL INDEX
   HX - HEAT INDEX
  VSB - VISIBILITY
$$



USA.gov is the U.S. government's official web portal to all federal, state and local government web resources and services.